Back to catalog

COSMOS 2251 DEB

AliveLEO
NORAD 37530·DEBRIS·🇷🇺 Russia

Launched Jun 16, 1993 from Plesetsk Cosmodrome

Loading…

Next Passes (next 24 hours)

TLE

FreshSource: Space-Track

Epoch: Sep 14, 2026, 02:03 UTC

1 37530U 93036BNK 26257.08559994  .00000283  00000-0  10846-3 0  9995
2 37530  74.0365 189.2409 0027128 190.1388 182.4450 14.34790175891810

Track COSMOS 2251 DEB in real time with AllMySat

Download on the App Store